Station SWPV2 - 8638610 - Sewells Point, VA Image indicating link to RSS feed of recent meteorological observations for station SWPV2


Conditions at SWPV2 as of
(2:30 pm EDT)
1830 GMT on 05/24/2024:
     

Click on the graph icon in the table below to see a time series plot of the last five days of that observation.

5-day plot - Atmospheric Pressure Atmospheric Pressure (PRES):29.88 in
5-day plot - Water Temperature Water Temperature (WTMP): 71.1 °F
NOS Water Level Observation Network Water Level
Previous observations
TIME
(EDT)
5-day plot - Wind Direction
WDIR
 
5-day plot - Wind Speed
WSPD
kts
5-day plot - Wind Gust
GST
kts
5-day plot - Wave Height
WVHT
ft
5-day plot - Dominant Wave Period
DPD
sec
5-day plot - Average Wave Period
APD
sec
5-day plot - Mean Wave Direction
MWD
 
5-day plot - Atmospheric Pressure
PRES
in
5-day plot - Pressure Tendency
PTDY
in
5-day plot - Air Temperature
ATMP
°F
5-day plot - Water Temperature
WTMP
°F
5-day plot - Dew Point
DEWP
°F
5-day plot - Salinity
SAL
psu
5-day plot - Visibility
VIS
nmi
5-day plot - Tide (above MLLW)
TIDE
ft
2024-05-24 02:24 pm-------29.87-- 71.2----
2024-05-24 02:18 pm-------29.88-- 71.1----
2024-05-24 02:12 pm-------29.88-- 70.9----
2024-05-24 02:06 pm-------29.87-- 70.9----
2024-05-24 02:00 pm-------29.87-0.06- 70.9----
2024-05-24 01:54 pm-------29.87-- 70.7----
2024-05-24 01:48 pm-------29.86-- 70.5----
2024-05-24 01:42 pm-------29.86-- 70.5----
2024-05-24 01:36 pm-------29.87-- 70.5----
2024-05-24 01:30 pm-------29.87-- 70.5----
2024-05-24 01:24 pm-------29.88-- 70.9----
2024-05-24 01:18 pm-------29.88-- 70.7----
2024-05-24 01:12 pm-------29.88-- 70.7----
2024-05-24 01:06 pm-------29.88-- 70.7----
2024-05-24 01:00 pm-------29.89-0.03- 70.7----
2024-05-24 12:54 pm-------29.90-- 71.1----
2024-05-24 12:48 pm-------29.91-- 70.9----
2024-05-24 12:42 pm-------29.91-- 70.9----
2024-05-24 12:36 pm-------29.91-- 70.9----
2024-05-24 12:30 pm-------29.91-- 70.9----
2024-05-24 12:24 pm-------29.92-- 70.9----
2024-05-24 12:18 pm-------29.92-- 71.1----
2024-05-24 12:12 pm-------29.92-- 71.1----
2024-05-24 12:06 pm-------29.92-- 71.4----
2024-05-24 12:00 pm-------29.92+0.00- 71.2----
2024-05-24 11:54 am-------29.92-- 71.4----
2024-05-24 11:48 am-------29.92-- 71.6----
2024-05-24 11:42 am-------29.93-- 71.4----
2024-05-24 11:36 am-------29.92-- 71.6----
2024-05-24 11:30 am-------29.93-- 71.4----
2024-05-24 11:24 am-------29.93-- 71.4----
2024-05-24 11:18 am-------29.93-- 71.4----
2024-05-24 11:12 am-------29.93-- 71.4----
2024-05-24 11:06 am-------29.93-- 71.4----
2024-05-24 11:00 am-------29.93+0.00- 71.4----
2024-05-24 10:54 am-------29.92-- 71.2----
2024-05-24 10:48 am-------29.92-- 71.2----
2024-05-24 10:42 am-------29.92-- 71.6----
2024-05-24 10:36 am-------29.92-- 71.4----
2024-05-24 10:30 am-------29.92-- 71.6----
2024-05-24 10:24 am-------29.92-- 71.6----
2024-05-24 10:18 am-------29.92-- 71.4----
2024-05-24 10:12 am-------29.92-- 71.2----
2024-05-24 10:06 am-------29.92-- 71.4----
2024-05-24 10:00 am-------29.92+0.00- 71.2----
2024-05-24 09:54 am-------29.92-- 71.4----
2024-05-24 09:48 am-------29.92-- 71.4----
2024-05-24 09:42 am-------29.92-- 71.6----
2024-05-24 09:36 am-------29.92-- 71.4----
2024-05-24 09:30 am-------29.92-- 71.6----
2024-05-24 09:24 am-------29.91-- 71.4----
2024-05-24 09:18 am-------29.92-- 71.4----
2024-05-24 09:12 am-------29.92-- 71.1----
2024-05-24 09:06 am-------29.92-- 71.1----
2024-05-24 09:00 am-------29.92+0.03- 71.2----
2024-05-24 08:54 am-------29.92-- 71.4----
2024-05-24 08:48 am-------29.92-- 71.6----
2024-05-24 08:42 am-------29.92-- 71.6----
2024-05-24 08:36 am-------29.93-- 71.8----
2024-05-24 08:30 am-------29.93-- 71.8----
2024-05-24 08:24 am-------29.92-- 72.0----
2024-05-24 08:18 am-------29.93-- 71.8----
2024-05-24 08:12 am-------29.93-- 71.8----
2024-05-24 08:06 am-------29.93-- 71.8----
2024-05-24 08:00 am-------29.92+0.04- 72.0----
2024-05-24 07:54 am-------29.92-- 71.8----
2024-05-24 07:48 am-------29.92-- 71.8----
2024-05-24 07:42 am-------29.92-- 71.8----
2024-05-24 07:36 am-------29.93-- 72.1----
2024-05-24 07:30 am-------29.92-- 72.0----
2024-05-24 07:24 am-------29.92-- 71.8----
2024-05-24 07:18 am-------29.92-- 71.8----
2024-05-24 07:12 am-------29.92-- 71.6----
2024-05-24 07:06 am-------29.92-- 71.8----
2024-05-24 07:00 am-------29.91+0.00- 71.6----
2024-05-24 06:54 am-------29.91-- 71.6----
2024-05-24 06:48 am-------29.91-- 71.6----
2024-05-24 06:42 am-------29.90-- 71.6----
2024-05-24 06:36 am-------29.90-- 71.6----
2024-05-24 06:30 am-------29.90-- 71.6----
2024-05-24 06:24 am-------29.90-- 71.6----
2024-05-24 06:18 am-------29.89-- 71.8----
2024-05-24 06:12 am-------29.89-- 71.8----
2024-05-24 06:06 am-------29.89-- 71.8----
2024-05-24 06:00 am-------29.89-0.02- 71.8----
2024-05-24 05:54 am-------29.89-- 71.8----
2024-05-24 05:48 am-------29.89-- 71.6----
2024-05-24 05:42 am-------29.90-- 71.8----
2024-05-24 05:36 am-------29.90-- 71.6----
2024-05-24 05:30 am-------29.89-- 71.8----
2024-05-24 05:24 am-------29.88-- 71.8----
2024-05-24 05:18 am-------29.88-- 71.8----
2024-05-24 05:12 am-------29.88-- 72.0----
2024-05-24 05:06 am-------29.88-- 72.0----
2024-05-24 05:00 am-------29.88-0.04- 72.0----
2024-05-24 04:54 am-------29.88-- 72.0----
2024-05-24 04:48 am-------29.89-- 72.0----
2024-05-24 04:42 am-------29.90-- 72.0----
2024-05-24 04:36 am-------29.90-- 72.0----
2024-05-24 04:30 am-------29.91-- 72.1----
2024-05-24 04:24 am-------29.91-- 72.0----
2024-05-24 04:18 am-------29.91-- 72.0----
2024-05-24 04:12 am-------29.92-- 72.0----
2024-05-24 04:06 am-------29.91-- 72.0----
2024-05-24 04:00 am-------29.92+0.00- 72.1----
2024-05-24 03:54 am-------29.92-- 72.0----
2024-05-24 03:48 am-------29.92-- 72.0----
2024-05-24 03:42 am-------29.91-- 72.1----
2024-05-24 03:36 am-------29.91-- 72.0----
2024-05-24 03:30 am-------29.92-- 72.1----
2024-05-24 03:24 am-------29.92-- 72.0----
2024-05-24 03:18 am-------29.92-- 72.0----
2024-05-24 03:12 am-------29.92-- 71.8----
2024-05-24 03:06 am-------29.91-- 71.8----
2024-05-24 03:00 am-------29.91-0.01- 72.0----
2024-05-24 02:54 am-------29.91-- 72.0----
2024-05-24 02:48 am-------29.92-- 72.0----
2024-05-24 02:42 am-------29.92-- 72.0----
2024-05-24 02:36 am-------29.92-- 72.1----
2024-05-24 02:30 am-------29.92-- 72.1----
2024-05-24 02:24 am-------29.92-- 72.1----
2024-05-24 02:18 am-------29.91-- 72.0----
2024-05-24 02:12 am-------29.91-- 71.6----
2024-05-24 02:06 am-------29.91-- 71.2----
2024-05-24 02:00 am-------29.92-0.02- 71.4----
2024-05-24 01:54 am-------29.92-- 71.4----
2024-05-24 01:48 am-------29.92-- 71.2----
2024-05-24 01:42 am-------29.92-- 71.2----
2024-05-24 01:36 am-------29.92-- 71.2----
2024-05-24 01:30 am-------29.92-- 71.1----
2024-05-24 01:24 am-------29.92-- 70.7----
2024-05-24 01:18 am-------29.92-- 70.7----
2024-05-24 01:12 am-------29.92-- 70.9----
2024-05-24 01:06 am-------29.92-- 70.9----
2024-05-24 01:00 am-------29.92+0.00- 70.9----
2024-05-24 12:54 am-------29.92-- 70.9----
2024-05-24 12:48 am-------29.93-- 70.7----
2024-05-24 12:42 am-------29.93-- 70.5----
2024-05-24 12:36 am-------29.93-- 70.5----
2024-05-24 12:30 am-------29.93-- 70.5----
2024-05-24 12:24 am-------29.93-- 70.3----
2024-05-24 12:18 am-------29.93-- 70.5----
2024-05-24 12:12 am-------29.93-- 70.5----
2024-05-24 12:06 am-------29.93-- 70.2----
2024-05-24 12:00 am-------29.93+0.01- 70.3----
2024-05-23 11:54 pm-------29.93-- 70.5----
2024-05-23 11:48 pm-------29.93-- 70.2----
2024-05-23 11:42 pm-------29.93-- 70.2----
2024-05-23 11:36 pm-------29.93-- 70.0----
2024-05-23 11:30 pm-------29.93-- 70.2----
2024-05-23 11:24 pm-------29.93-- 70.3----
2024-05-23 11:18 pm-------29.93-- 70.3----
2024-05-23 11:12 pm-------29.93-- 70.7----
2024-05-23 11:06 pm-------29.93-- 70.7----
2024-05-23 11:00 pm-------29.93+0.01- 70.7----
2024-05-23 10:54 pm-------29.93-- 70.9----
2024-05-23 10:48 pm-------29.93-- 70.7----
2024-05-23 10:42 pm-------29.94-- 70.9----
2024-05-23 10:36 pm-------29.93-- 71.1----
2024-05-23 10:30 pm-------29.93-- 72.0----
2024-05-23 10:24 pm-------29.93-- 71.8----
2024-05-23 10:18 pm-------29.93-- 71.4----
2024-05-23 10:12 pm-------29.93-- 71.8----
2024-05-23 10:06 pm-------29.93-- 72.1----
2024-05-23 10:00 pm-------29.93+0.00- 72.0----
2024-05-23 09:54 pm-------29.93-- 71.8----
2024-05-23 09:48 pm-------29.93-- 72.1----
2024-05-23 09:42 pm-------29.93-- 72.7----
2024-05-23 09:36 pm-------29.93-- 72.9----
2024-05-23 09:30 pm-------29.93-- 73.0----
2024-05-23 09:24 pm-------29.92-- 73.0----
2024-05-23 09:18 pm-------29.92-- 73.0----
2024-05-23 09:12 pm-------29.92-- 72.9----
2024-05-23 09:06 pm-------29.92-- 73.0----
2024-05-23 09:00 pm-------29.92-0.01- 73.0----
2024-05-23 08:54 pm-------29.91-- 72.5----
2024-05-23 08:48 pm-------29.91-- 72.5----
2024-05-23 08:42 pm-------29.91-- 72.3----
2024-05-23 08:36 pm-------29.91-- 72.3----
2024-05-23 08:30 pm-------29.91-- 72.1----
2024-05-23 08:24 pm-------29.91-- 72.5----
2024-05-23 08:18 pm-------29.91-- 72.3----
2024-05-23 08:12 pm-------29.91-- 72.5----
2024-05-23 08:06 pm-------29.91-- 72.5----
2024-05-23 08:00 pm-------29.92+0.00- 71.4----
2024-05-23 07:54 pm-------29.92-- 72.1----
2024-05-23 07:48 pm-------29.92-- 72.5----
2024-05-23 07:42 pm-------29.92-- 72.7----
2024-05-23 07:36 pm-------29.92-- 73.0----
2024-05-23 07:30 pm-------29.92-- 73.2----
2024-05-23 07:24 pm-------29.93-- 72.7----
2024-05-23 07:18 pm-------29.93-- 72.5----
2024-05-23 07:00 pm-------29.93+0.00- 73.4----
2024-05-23 06:54 pm-------29.93-- 74.5----
2024-05-23 06:48 pm-------29.93-- 74.5----
2024-05-23 06:42 pm-------29.93-- 74.5----
2024-05-23 06:36 pm-------29.93-- 74.3----
2024-05-23 06:30 pm-------29.92-- 74.3----
2024-05-23 06:24 pm-------29.93-- 74.3----
2024-05-23 06:18 pm-------29.92-- 74.3----
2024-05-23 06:12 pm-------29.92-- 74.3----
2024-05-23 06:06 pm-------29.93-- 74.1----
2024-05-23 06:00 pm-------29.93-0.02- 73.9----
2024-05-23 05:54 pm-------29.92-- 73.9----
2024-05-23 05:48 pm-------29.92-- 73.6----
2024-05-23 05:42 pm-------29.92-- 73.6----
2024-05-23 05:36 pm-------29.92-- 73.6----
2024-05-23 05:30 pm-------29.92-- 73.4----
2024-05-23 05:24 pm-------29.92-- 73.8----
2024-05-23 05:18 pm-------29.93-- 73.6----
2024-05-23 05:12 pm-------29.92-- 73.6----
2024-05-23 05:06 pm-------29.93-- 73.8----
2024-05-23 05:00 pm-------29.93-0.04- 73.6----
2024-05-23 04:54 pm-------29.92-- 73.6----
2024-05-23 04:48 pm-------29.92-- 73.6----
2024-05-23 04:42 pm-------29.92-- 73.6----
2024-05-23 04:36 pm-------29.93-- 73.6----
2024-05-23 04:30 pm-------29.92-- 73.6----
2024-05-23 04:24 pm-------29.92-- 73.6----
2024-05-23 04:18 pm-------29.92-- 73.4----
2024-05-23 04:12 pm-------29.92-- 73.2----
2024-05-23 04:06 pm-------29.92-- 73.0----
2024-05-23 04:00 pm-------29.92-0.04- 73.0----
2024-05-23 03:54 pm-------29.92-- 73.2----
2024-05-23 03:48 pm-------29.92-- 72.9----
2024-05-23 03:42 pm-------29.93-- 73.0----
2024-05-23 03:36 pm-------29.93-- 73.0----
2024-05-23 03:30 pm-------29.93-- 73.0----
2024-05-23 03:24 pm-------29.94-- 73.2----
2024-05-23 03:18 pm-------29.94-- 72.5----
2024-05-23 03:12 pm-------29.94-- 71.4----
2024-05-23 03:06 pm-------29.94-- 72.1----
2024-05-23 03:00 pm-------29.95-0.02- 71.4----
2024-05-23 02:54 pm-------29.95-- 71.1----